STARLINK-32676 (62426 NORAD) Tracking and Keplerian Element Data

This shows tracking and keplerian element data for the satellite.

Feedback or suggestion? Click here.




ElementValue
Catalog62426
NameSTARLINK-32676
Epoch Orbit674
Epoch Day35.09043724
Epoch Year2025
RAAN58.9521
Inclination43.0012
Eccentricity0.000126
Argument of Perigee266.9134
Mean Anonmoly93.1579
Mean Motion15.40759437
Decay Rate4.388E-05
L11 62426U 24249T 25035.09043724 .00004388 00000+0 11202-3 0 9996
L22 62426 43.0012 58.9521 0001260 266.9134 93.1579 15.40759437 6748



Live tracking and technical data element details for STARLINK-32676 (NORAD 62426). STARLINK-32676 can be tracked NOW for your location showing map with azimuth and elevation plus other details from your city location.







IsCatalogInMostPopularTable: catalog: 62426, numindb: 17
Update: records affected: 1



GetName: 62426 STARLINK-32676

Hit Count: updated at: Mon, 19 May 2025 02:56:57 GMT